This demonstration page uses our WeatherBlox Daily Observations layout. Learn more.

Left ArrowRight Arrow

39.08367, -84.50855

Hourly Observations for May 30, 2020

Temp ( °F °C ) Dew Point ( °F °C ) Humidity (%) Winds ( mph kmh ) Pressure ( in mb ) Visibility ( mi km ) Precip ( " mm )
12:53 am 00:53 Mostly Clear 57 13.9 57 13.9 100 100 SSW 3 6 30.04 1017 10 16.0934 0 0
1:53 am 01:53 Mostly Clear 58 14.4 57 13.9 97 97 SSE 3 6 30.05 1018 10 16.0934 0 0
2:53 am 02:53 Clear 58 14.4 57 13.9 97 97 Calm 30.04 1017 7 11.26538 0 0
3:37 am 03:37 Clear with Mist and Fog 56 13.3 56 13.3 100 100 Calm 30.05 1018 1.75 2.816345 0 0
3:47 am 03:47 Clear with Mist and Fog 57 14 55 13 94 94 Calm 30.05 1018 3 4.82802 0 0
3:53 am 03:53 Clear with Mist and Fog 57 13.9 56 13.3 96 96 Calm 30.04 1017 2.5 4.02335 0 0
4:08 am 04:08 Clear with Mist and Fog 57 13.9 56 13.3 96 96 Calm 30.05 1018 6 9.65604 0 0
4:28 am 04:28 Clear with Mist and Fog 56 13.3 56 13.3 100 100 Calm 30.06 1018 2 3.21868 0 0
4:35 am 04:35 Clear with Mist and Fog 56 13.3 56 13.3 100 100 Calm 30.06 1018 1.5 2.41401 0 0
4:41 am 04:41 Clear with Mist and Fog 56 13.3 56 13.3 100 100 Calm 30.06 1018 3 4.82802 0 0
4:53 am 04:53 Clear with Mist and Fog 56 13.3 55 12.8 97 97 Calm 30.06 1018 6 9.65604 0 0
5:20 am 05:20 Clear with Mist and Fog 56 13.3 56 13.3 100 100 Calm 30.07 1018 1.75 2.816345 0 0
5:28 am 05:28 Clear with Mist and Fog 56 13.3 55 12.8 97 97 Calm 30.07 1018 3 4.82802 0 0
5:36 am 05:36 Clear with Mist and Fog 56 13.3 55 12.8 97 97 Calm 30.07 1018 1.5 2.41401 0 0
5:49 am 05:49 Clear with Fog 55 13 55 13 100 100 Calm 30.08 1019 0.5 0.80467 0 0
5:53 am 05:53 Clear with Fog 55 12.8 55 12.8 100 100 Calm 30.07 1018 0.5 0.80467 0 0
6:07 am 06:07 Mostly Cloudy with Fog 55 12.8 55 12.8 100 100 Calm 30.08 1019 0.5 0.80467 0 0
6:15 am 06:15 Mostly Cloudy with Fog 56 13.3 55 12.8 97 97 Calm 30.08 1019 0.25 0.402335 0 0
6:21 am 06:21 Mostly Cloudy with Mist and Fog 56 13.3 55 12.8 97 97 Calm 30.09 1019 1 1.60934 0 0
6:28 am 06:28 Partly Cloudy with Mist and Fog 54 12.2 54 12.2 100 100 Calm 30.09 1019 2 3.21868 0 0
6:35 am 06:35 Sunny with Mist and Fog 55 12.8 55 12.8 100 100 Calm 30.09 1019 6 9.65604 0 0
6:53 am 06:53 Sunny 56 13.3 56 13.3 100 100 Calm 30.09 1019 10 16.0934 0 0
7:53 am 07:53 Sunny 62 16.7 57 13.9 84 84 N 5 7 30.11 1020 10 16.0934 0 0
8:53 am 08:53 Sunny 65 18.3 55 12.8 70 70 NNE 7 11 30.11 1020 10 16.0934 0 0
9:53 am 09:53 Sunny 67 19.4 53 11.7 61 61 NNE 9 15 30.13 1020 10 16.0934 0 0
10:53 am 10:53 Sunny 69 20.6 52 11.1 55 55 N 9 15 30.12 1020 10 16.0934 0 0
11:53 am 11:53 Partly Cloudy 72 22.2 53 11.7 52 52 NNW 8 13 30.12 1020 10 16.0934 0 0
12:53 pm 12:53 Mostly Cloudy 71 21.7 51 10.6 49 49 NNE 6 9 30.12 1020 10 16.0934 0 0
1:53 pm 13:53 Partly Cloudy 73 22.8 51 10.6 46 46 NW 12 19 30.12 1020 10 16.0934 0 0
2:53 pm 14:53 Partly Cloudy 74 23.3 50 10 43 43 NW 13 20 30.11 1020 10 16.0934 0 0
3:53 pm 15:53 Partly Cloudy 71 21.7 50 10 47 47 NNW 9 15 30.12 1020 10 16.0934 0 0
4:53 pm 16:53 Partly Cloudy 73 22.8 49 9.4 43 43 NNW 12 19 30.11 1020 10 16.0934 0 0
5:53 pm 17:53 Partly Cloudy 73 22.8 49 9.4 43 43 NW 9 15 30.11 1020 10 16.0934 0 0
6:53 pm 18:53 Partly Cloudy 71 21.7 49 9.4 46 46 N 8 13 30.1 1019 10 16.0934 0 0
7:53 pm 19:53 Mostly Sunny 71 21.7 49 9.4 46 46 N 10 17 30.11 1020 10 16.0934 0 0
8:53 pm 20:53 Sunny 68 20 48 8.9 49 49 N 6 9 30.12 1020 10 16.0934 0 0
9:53 pm 21:53 Clear 65 18.3 48 8.9 54 54 Calm 30.14 1021 10 16.0934 0 0
10:53 pm 22:53 Clear 62 16.7 53 11.7 73 73 Calm 30.16 1021 10 16.0934 0 0
11:53 pm 23:53 Clear 56 13.3 53 11.7 90 90 Calm 30.17 1022 10 16.0934 0 0

Powered by AerisWeather